Volver al catálogo

FREGAT R/B

ActivoHEO
NORAD 40002·ROCKET BODY·🇷🇺 Russia

Lanzado Jun 14, 2014 desde Plesetsk Cosmodrome

Loading…

Próximos Pases (próximas 24 horas)

TLE

ActualizadoSource: Space-Track

Época: Sep 13, 2026, 09:38 UTC

1 40002U 14032B   26256.40188353 -.00000059  00000-0  00000+0 0  9993
2 40002  65.3787 317.0536 0078309  84.9503 276.0170  2.09160880 93576

Sigue FREGAT R/B en tiempo real con AllMySat

Download on the App Store